TFFFTLPC

Guest
Details From TFFF - Le Lamentin
To TLPC - Castries - George F L Charles (vigie)
Flight Number -
Tags Generated
Created
Modified
Stats Distance 34 nm / 64 km
Max Altitude 0 ft / 0 m
Waypoints 2
Social Downloads 1
Likes 0
Share VATSIM

Download

Looking for another format? Having issues loading an existing format? Contact us
Advertisement - Login to hide

Notes

Generated

Route

TFFF TLPC

ID Type Via Altitude Latitude Longitude Leg Dist Tot Dist Heading (true) Name
O TFFF APT - 0 ft / 0 m 14.58843˚ -61.01831˚ - 0 nm - -
O TLPC APT - 0 ft / 0 m 14.01772˚ -61.00122˚ 34 nm 34 nm 178° / 178° -

Altitude Profile

Advertisement - Login to hide

TFFF

Details ICAO TFFF (FDF)
Name Martinique/Aime Cesaire Intl
Region France (Guadeloupe, Martinique, Saint Barthélemy, Saint Martin)
Timezone America/Martinique (UTC-4.0)
Stats Elevation 16 ft / 5 m (AMSL)
Location 14.591032° -61.003173°
Runways 1
Magnetic Variation 15.058° W

METAR

TFFF 171000Z AUTO 09006KT 9999 FEW030 25/20 Q1014 NOSIG

Decode

TAF

Not found

Departure Runways

ID Width Length Bearing (true) Bearing (mag) Surface Threshold Offset Overrun Length
09 148 ft / 45 m 9,852 ft / 3,003 m 79.93° 94.99° Asphalt 0 ft / 0 m 0 ft / 0 m
27 148 ft / 45 m 9,852 ft / 3,003 m 259.94° 275.00° Asphalt 820 ft / 250 m 948 ft / 289 m

TLPC

Details ICAO TLPC (SLU)
Name Castries/George F L Charles
Region Saint Lucia
Timezone America/St_Lucia (UTC-4.0)
Stats Elevation 22 ft / 7 m (AMSL)
Location 14.019704° -60.993394°
Runways 1
Magnetic Variation 15.072° W

METAR

TLPC 171000Z 08005KT 9999 FEW022 26/23 Q1014 NOSIG

Decode

TAF

Not found

Destination Runways

ID Width Length Bearing (true) Bearing (mag) Surface Threshold Offset Overrun Length
09 148 ft / 45 m 5,731 ft / 1,747 m 75.34° 90.41° Asphalt 400 ft / 122 m 0 ft / 0 m
27 148 ft / 45 m 5,731 ft / 1,747 m 255.34° 270.41° Asphalt 925 ft / 282 m 0 ft / 0 m

Popular Alternatives